Regional Weather Roundup
Issued by NWS

Home | Current Version | Previous Version | Text Only | Print | Product List | Glossary Off
Versions: 1 2 3 4 5 6 7 8 9 10 11 12 13 14 15 16 17 18 19 20 21 22 23 24 25 26 27 28 29 30 31 32 33 34 35 36 37 38 39 40 41 42 43 44 45 46 47 48 49 50

000
ASUS43 KMPX 280301
RWRMN
WEATHER ROUNDUP FOR MINNESOTA
NATIONAL WEATHER SERVICE TWIN CITIES/CHANHASSEN MN
900 PM CST MON FEB 27 2017


NOTE: "FAIR" INDICATES FEW OR NO CLOUDS BELOW 12,000 FEET WITH NO
SIGNIFICANT WEATHER AND/OR OBSTRUCTIONS TO VISIBILITY. N/A MEANS
CURRENT SKY AND/OR WEATHER CONDITIONS ARE NOT AVAILABLE.

MNZ060>063-068>070-280400-
   Twin Cities Metro

CITY           SKY/WX    TMP DP  RH WIND       PRES   REMARKS
TWIN CITIES    CLOUDY    36  25  64 SE7       29.88S
ST PAUL        CLOUDY    34  26  72 S8        29.90S WCI  27
CRYSTAL        CLOUDY    37  24  59 SE7       29.85F
BLAINE         MOCLDY    37  27  65 SE8       29.87F
LAKEVILLE      CLOUDY    32  28  86 E5        29.88R WCI  27
EDEN PRAIRIE   CLOUDY    37  27  67 SE9       29.85F
SOUTH ST PAUL  CLOUDY    35  25  66 CALM      29.89S
LAKE ELMO      FAIR      36  28  75 S7        29.90R
$$
MNZ001>005-007-008-013>017-022>024-027-028-280400-
   Northwest Minnesota

CITY           SKY/WX    TMP DP  RH WIND       PRES   REMARKS
BEMIDJI        CLOUDY    26  16  64 N7        29.83R WCI  19
HALLOCK        MOCLDY    18  12  79 N9        29.95R WCI   6
ROSEAU         LGT SNOW  19  16  86 N9        29.92S WCI   9
WARROAD        LGT SNOW  19  16  86 N7        29.93R WCI  10
THIEF RVR FALL FLURRIES  21  16  81 N13       29.89  WCI   9
CROOKSTON      CLOUDY    21  19  93 N12       29.91R WCI   9
FOSSTON        CLOUDY    21  18  86 NE7       29.85S WCI  13
DETROIT LAKES  CLOUDY    32  28  86 N7        29.81R WCI  26
MOORHEAD       CLOUDY    27  19  74 N17       29.85R WCI  14
PARK RAPIDS    CLOUDY    31  22  69 NE5       29.79S WCI  26
MAHNOMEN       FAIR      25  17  73 NE16      29.82S WCI  12
$$
MNZ006-009>011-018-025>026-280400-
   North Central Minnesota

CITY           SKY/WX    TMP DP  RH WIND       PRES   REMARKS
BAUDETTE       CLOUDY    21  16  81 N7        29.89S WCI  12
FLAG ISLAND    CLOUDY    18  14  86 N10       29.93R FOG     WCI   6
INTL FALLS     CLOUDY    25  10  53 N3        29.89R
WASKISH        CLOUDY    27  12  54 NE6       29.87F WCI  20
BIG FORK       CLOUDY    28  18  64 N5        29.85S WCI  23
LONGVILLE      CLOUDY    30  25  80 CALM      29.80F
GRAND RAPIDS   CLOUDY    30  24  78 CALM      29.84S
CRANE LAKE     CLOUDY    21  16  79 CALM      29.91R
ORR            CLOUDY    27  16  63 CALM      29.85R
COOK           CLOUDY    27  19  74 CALM      29.86R
WALKER         CLOUDY    29  20  71 NE6       29.81F WCI  22
$$
MNZ012-019>021-037-280400-
   Northeast Minnesota

CITY           SKY/WX    TMP DP  RH WIND       PRES   REMARKS
DULUTH         MOCLDY    27  25  92 E6        29.86F WCI  20
ELY            CLOUDY    27  21  80 SE5       29.87R WCI  21
HIBBING        CLOUDY    28  22  78 SE10      29.85R WCI  19
EVELETH        CLOUDY    30  21  69 SE7       29.87R WCI  23
DULUTH HARBOR  CLOUDY    32  28  86 NE13      29.91F WCI  22
TWO HARBORS    CLOUDY    28  25  86 NE7       29.88F WCI  21
SILVER BAY     CLOUDY    27  25  93 NE6       29.90S WCI  20
GRAND MARAIS     N/A     27  22  81 NE5       29.96S WCI  22
G MARAIS ARPRT CLOUDY    19  16  86 E3        29.89S
$$
MNZ029>031-032-039>041-046>048-054>057-064-280400-
   West Central Minnesota

CITY           SKY/WX    TMP DP  RH WIND       PRES   REMARKS
FERGUS FALLS   CLOUDY    34  25  69 CALM      29.82R
WHEATON        CLOUDY    32  28  86 NW7       29.81R WCI  26
MORRIS         CLOUDY    32  28  86 CALM      29.79R
ALEXANDRIA     CLOUDY    36  28  73 S10       29.80R
ELBOW LAKE     CLOUDY    33  30  89 S7        29.78R WCI  26
WADENA         CLOUDY    30  21  69 E6        29.78R WCI  24
GLENWOOD       CLEAR     34  28  80 S10       29.80R WCI  26
APPLETON       CLOUDY    39  27  60 S6        29.79R
BENSON         CLOUDY    37  27  65 S8        29.82R
ORTONVILLE     MOCLDY    36  25  64 CALM      29.79R
MADISON        CLOUDY    39  30  70 S7        29.79S
WILLMAR        MOCLDY    36  30  80 SE10      29.83R
$$
MNZ033>034-036-042>043-049>051-058-059-280400-
   Central Minnesota

CITY           SKY/WX    TMP DP  RH WIND       PRES   REMARKS
ST CLOUD       CLOUDY    36  24  62 S10       29.83R
SAUK CENTRE    CLOUDY    32  27  81 S7        29.81R WCI  26
PAYNESVILLE    CLOUDY    35  26  70 SE12      29.82R WCI  27
AITKIN         CLOUDY    36  21  55 SE3       29.81S
PINE RIVER     CLOUDY    28  25  86 CALM      29.84S
BRAINERD       CLOUDY    30  25  81 SE3       29.81S
STAPLES        CLOUDY    30  21  69 NE3       29.79S
LONG PRAIRIE   CLOUDY    34  27  75 SE12      29.81R WCI  25
LITTLE FALLS   CLOUDY    34  23  64 SE7       29.83R WCI  28
LITCHFIELD     PTCLDY    36  27  69 SE7       29.83F
BUFFALO        CLOUDY    36  24  62 SE3       29.86S
MAPLE LAKE     MOCLDY    36  28  71 S3        29.86R
HUTCHINSON     CLEAR     32  29  90 SE5       29.85F WCI  27
$$
MNZ037-044-045-052-053-280400-
   East Central Minnesota

CITY           SKY/WX    TMP DP  RH WIND       PRES   REMARKS
PRINCETON      CLOUDY    37  25  60 SE10      29.85S
MORA           CLOUDY    36  23  60 S7        29.86S
CAMBRIDGE      PTCLDY    37  25  60 SE7       29.84F
RUSH CITY      CLOUDY    35  23  61 SE8       29.87S WCI  28
MOOSE LAKE     MOCLDY    28  23  80 N5        29.85R WCI  23
HINCKLEY       MOCLDY    36  23  60 S7        29.86S
CLOQUET        CLOUDY    27  23  86 NE3       29.87R
MCGREGOR       CLOUDY    36  23  60 SE7       29.84R
$$
MNZ071>073-080-081-089-090-097-098-280400-
   Southwest Minnesota

CITY           SKY/WX    TMP DP  RH WIND       PRES   REMARKS
MONTEVIDEO     CLOUDY    37  28  70 S5        29.82R
GRANITE FALLS  CLOUDY    37  31  81 SE10      29.81S
CANBY          CLOUDY    36  29  76 CALM      29.79R
MARSHALL       CLOUDY    38  30  73 S12       29.79S
REDWOOD FALLS  CLOUDY    35  27  72 SE10      29.83R WCI  27
OLIVIA         PTCLDY    34  30  86 SE8       29.82R WCI  27
PIPESTONE      CLOUDY    36  28  75 SE9       29.75F
WINDOM         CLOUDY    36  30  80 CALM      29.80F
WORTHINGTON    CLOUDY    34  31  88 E6        29.79S WCI  29
JACKSON        CLOUDY    34  32  93 E6        29.80S WCI  29
TRACY          CLOUDY    36  31  84 S8        29.79F
SLAYTON        CLOUDY    33  30  89 SE6       29.79F WCI  28
$$
MNZ065>067-074>077-082>085-091>093-280400-
   South Central Minnesota

CITY           SKY/WX    TMP DP  RH WIND       PRES   REMARKS
MANKATO          N/A     36  31  82 SE12      29.85R
NEW ULM        CLOUDY    36  27  69 CALM      29.84S
ST JAMES       CLOUDY    34  30  86 CALM      29.83F
FAIRMONT       CLOUDY    37  32  82 SE12      29.82S
GLENCOE        CLOUDY    36  32  85 SE5       29.85R
FARIBAULT      CLOUDY    37  30  75 E6        29.88R
OWATONNA       CLOUDY    36  30  80 E5        29.87S
WASECA         CLOUDY    36  32  87 E8        29.87S
ALBERT LEA     CLOUDY    37  30  75 SE6       29.86R
$$
MNZ078>079-086>088-094>096-280400-
   Southeast Minnesota

CITY           SKY/WX    TMP DP  RH WIND       PRES   REMARKS
ROCHESTER      CLOUDY    37  30  75 SE13      29.88R
RED WING       CLOUDY    37  27  65 E3        29.90S
STANTON        CLOUDY    36  29  75 CALM      29.88R
WINONA         CLOUDY    37  32  81 S6        29.92S
AUSTIN         MOCLDY    39  30  70 SE8       29.87R
PRESTON        CLOUDY    38  30  72 SE9       29.89S
$$
ABBREVIATIONS USED IN REMARKS
   TC - TEMPERATURES IN CELSIUS
  WCI - WIND CHILL INDEX
   HX - HEAT INDEX
  VSB - VISIBILITY
$$



USA.gov is the U.S. government's official web portal to all federal, state and local government web resources and services.